TimeCST,TemperatureF,Dew PointF,Humidity,Sea Level PressureIn,VisibilityMPH,Wind Direction,Wind SpeedMPH,Gust SpeedMPH,PrecipitationIn,Events,Conditions,WindDirDegrees,DateUTC
12:15 AM,17.6,15.8,93,29.80,3.0,Calm,Calm,-,N/A,,Overcast,0,2012-12-17 06:15:00
12:35 AM,17.6,15.8,93,29.80,3.0,WNW,6.9,-,N/A,,Overcast,290,2012-12-17 06:35:00
12:55 AM,-9999,-9999,N/A,29.79,4.0,NNW,4.6,-,N/A,,Overcast,330,2012-12-17 06:55:00
1:15 AM,-9999,-9999,N/A,29.79,3.0,NNW,4.6,-,N/A,,Overcast,330,2012-12-17 07:15:00
1:35 AM,15.8,14.0,93,29.79,2.5,West,4.6,-,N/A,,Overcast,280,2012-12-17 07:35:00
1:55 AM,15.8,14.0,93,29.79,3.0,WNW,3.5,-,N/A,,Overcast,300,2012-12-17 07:55:00
2:15 AM,15.8,12.2,86,29.79,2.5,WNW,5.8,-,N/A,,Overcast,290,2012-12-17 08:15:00
2:35 AM,15.8,12.2,86,29.79,2.0,Calm,Calm,-,N/A,,Overcast,0,2012-12-17 08:35:00
2:55 AM,15.8,12.2,86,29.79,1.0,Calm,Calm,-,N/A,,Overcast,0,2012-12-17 08:55:00
3:15 AM,14.0,12.2,93,29.78,1.0,Calm,Calm,-,N/A,,Overcast,0,2012-12-17 09:15:00
3:35 AM,14.0,12.2,93,29.77,1.0,Calm,Calm,-,N/A,,Overcast,0,2012-12-17 09:35:00
3:55 AM,14.0,12.2,93,29.77,1.0,Calm,Calm,-,N/A,,Overcast,0,2012-12-17 09:55:00
4:15 AM,14.0,12.2,93,29.77,1.5,Calm,Calm,-,N/A,,Overcast,0,2012-12-17 10:15:00
4:35 AM,14.0,10.4,86,29.77,3.0,Calm,Calm,-,N/A,,Overcast,0,2012-12-17 10:35:00
4:55 AM,14.0,10.4,86,29.76,2.0,Calm,Calm,-,N/A,,Overcast,0,2012-12-17 10:55:00
5:15 AM,12.2,10.4,92,29.76,3.0,Calm,Calm,-,N/A,,Overcast,0,2012-12-17 11:15:00
5:35 AM,12.2,10.4,92,29.76,1.8,Calm,Calm,-,N/A,,Overcast,0,2012-12-17 11:35:00
5:55 AM,12.2,10.4,92,29.76,3.0,Calm,Calm,-,N/A,,Overcast,0,2012-12-17 11:55:00
6:15 AM,12.2,10.4,92,29.76,3.0,Calm,Calm,-,N/A,,Overcast,0,2012-12-17 12:15:00
6:35 AM,12.2,10.4,92,29.76,3.0,Calm,Calm,-,N/A,,Overcast,0,2012-12-17 12:35:00
6:55 AM,12.2,10.4,92,29.76,4.0,Calm,Calm,-,N/A,,Overcast,0,2012-12-17 12:55:00
7:15 AM,12.2,10.4,92,29.76,5.0,Calm,Calm,-,N/A,,Overcast,0,2012-12-17 13:15:00
7:35 AM,12.2,10.4,92,29.76,3.0,Calm,Calm,-,N/A,,Overcast,0,2012-12-17 13:35:00
7:55 AM,12.2,10.4,92,29.76,5.0,Calm,Calm,-,N/A,,Overcast,0,2012-12-17 13:55:00
8:15 AM,12.2,10.4,92,29.75,6.0,Calm,Calm,-,N/A,,Overcast,0,2012-12-17 14:15:00
8:35 AM,12.2,10.4,92,29.75,8.0,Calm,Calm,-,N/A,,Overcast,0,2012-12-17 14:35:00
8:55 AM,12.2,10.4,92,29.74,9.0,Calm,Calm,-,N/A,,Overcast,0,2012-12-17 14:55:00
9:15 AM,12.2,10.4,92,29.75,5.0,Calm,Calm,-,N/A,,Overcast,0,2012-12-17 15:15:00
9:35 AM,12.2,10.4,92,29.75,10.0,Calm,Calm,-,N/A,,Overcast,0,2012-12-17 15:35:00
9:55 AM,12.2,10.4,92,29.75,3.0,Calm,Calm,-,N/A,,Overcast,0,2012-12-17 15:55:00
10:15 AM,12.2,10.4,92,29.75,6.0,Calm,Calm,-,N/A,,Overcast,0,2012-12-17 16:15:00
10:35 AM,12.2,10.4,92,29.75,5.0,Calm,Calm,-,N/A,,Overcast,0,2012-12-17 16:35:00
10:55 AM,12.2,10.4,92,29.75,3.0,Calm,Calm,-,N/A,,Overcast,0,2012-12-17 16:55:00
11:15 AM,12.2,10.4,92,29.74,4.0,Calm,Calm,-,N/A,,Overcast,0,2012-12-17 17:15:00
11:35 AM,12.2,10.4,92,29.73,5.0,Calm,Calm,-,N/A,,Overcast,0,2012-12-17 17:35:00
11:55 AM,-9999,-9999,N/A,29.73,3.0,South,5.8,-,N/A,,Overcast,170,2012-12-17 17:55:00
12:15 PM,-9999,-9999,N/A,29.72,4.0,South,3.5,-,N/A,,Overcast,190,2012-12-17 18:15:00
12:35 PM,-9999,-9999,N/A,29.71,6.0,Calm,Calm,-,N/A,,Overcast,0,2012-12-17 18:35:00
12:55 PM,-9999,-9999,N/A,29.71,3.0,Calm,Calm,-,N/A,,Overcast,0,2012-12-17 18:55:00
1:15 PM,-9999,-9999,N/A,29.70,5.0,Calm,Calm,-,N/A,,Overcast,0,2012-12-17 19:15:00
1:35 PM,-9999,-9999,N/A,29.69,10.0,SE,3.5,-,N/A,,Overcast,130,2012-12-17 19:35:00
1:55 PM,-9999,-9999,N/A,29.68,10.0,Calm,Calm,-,N/A,,Overcast,0,2012-12-17 19:55:00
2:15 PM,-9999,-9999,N/A,29.67,9.0,Calm,Calm,-,N/A,,Overcast,0,2012-12-17 20:15:00
2:35 PM,-9999,-9999,N/A,29.68,9.0,Calm,Calm,-,N/A,,Overcast,0,2012-12-17 20:35:00
2:55 PM,-9999,-9999,N/A,29.67,10.0,Calm,Calm,-,N/A,,Overcast,0,2012-12-17 20:55:00
3:15 PM,-9999,-9999,N/A,29.67,8.0,Calm,Calm,-,N/A,,Overcast,0,2012-12-17 21:15:00
3:35 PM,12.2,10.4,92,29.68,10.0,Calm,Calm,-,N/A,,Overcast,0,2012-12-17 21:35:00
3:55 PM,12.2,10.4,92,29.68,10.0,Calm,Calm,-,N/A,,Overcast,0,2012-12-17 21:55:00
6:35 PM,14.0,10.4,86,29.68,10.0,South,5.8,-,N/A,,Overcast,170,2012-12-18 00:35:00
6:55 PM,14.0,12.2,93,29.68,10.0,SE,3.5,-,N/A,,Overcast,130,2012-12-18 00:55:00
7:15 PM,15.8,12.2,86,29.68,10.0,Calm,Calm,-,N/A,,Overcast,0,2012-12-18 01:15:00
7:35 PM,15.8,12.2,86,29.68,10.0,Calm,Calm,-,N/A,,Overcast,0,2012-12-18 01:35:00
7:55 PM,15.8,12.2,86,29.68,10.0,ESE,3.5,-,N/A,,Overcast,120,2012-12-18 01:55:00
8:15 PM,15.8,14.0,93,29.67,6.0,Calm,Calm,-,N/A,,Overcast,0,2012-12-18 02:15:00
8:35 PM,15.8,14.0,93,29.66,8.0,Calm,Calm,-,N/A,,Overcast,0,2012-12-18 02:35:00
8:55 PM,15.8,12.2,86,29.66,10.0,East,4.6,-,N/A,,Overcast,80,2012-12-18 02:55:00
9:15 PM,15.8,14.0,93,29.66,10.0,East,3.5,-,N/A,,Overcast,80,2012-12-18 03:15:00
9:35 PM,15.8,14.0,93,29.66,10.0,East,4.6,-,N/A,,Overcast,90,2012-12-18 03:35:00
9:55 PM,15.8,14.0,93,29.66,10.0,East,5.8,-,N/A,,Overcast,90,2012-12-18 03:55:00
10:15 PM,15.8,14.0,93,29.65,10.0,East,5.8,-,N/A,,Overcast,100,2012-12-18 04:15:00
10:35 PM,15.8,14.0,93,29.65,10.0,ESE,5.8,-,N/A,,Overcast,110,2012-12-18 04:35:00
10:55 PM,17.6,15.8,93,29.65,10.0,ESE,5.8,-,N/A,,Overcast,120,2012-12-18 04:55:00
11:15 PM,17.6,15.8,93,29.66,10.0,SE,4.6,-,N/A,,Overcast,130,2012-12-18 05:15:00
11:35 PM,17.6,15.8,93,29.66,10.0,SE,4.6,-,N/A,,Overcast,130,2012-12-18 05:35:00
11:55 PM,17.6,15.8,93,29.66,10.0,ESE,6.9,-,N/A,,Overcast,120,2012-12-18 05:55:00